Location: *
(34.8620°S, 39.3380°E)
Time: 02:15:10
(UTC+00:00)

Cosmos 1300 - Pass Details

Date: 01 December 2021
Orbit: 509 x 511 km, 82.5° (Epoch: 22 January)

Event Time Altitude Azimuth Distance (km) Brightness Sun altitude
Exits shadow 22:31:43 24° 180° (S) 1,115 4.9 -30.1°
Drops below altitude 10° 22:33:20 10° 177° (S) 1,761 6.2 -30.0°
Sets 22:35:30 0° 175° (S) 2,656 7.4 -29.8°
